Location: Finnegan
(51.1333°N, 112.0833°W)
Time: 21:18:00
(UTC+00:00)

Envisat - Pass Details

Date: 04 December 2021
Orbit: 764 x 766 km, 98.2° (Epoch: 26 January)

Event Time Altitude Azimuth Distance (km) Brightness Sun altitude
Rises 12:10:58 0° 18° (NNE) 3,247 6.4 -27.7°
Reaches altitude 10° 12:13:22 10° 23° (NNE) 2,316 5.7 -27.3°
Maximum altitude 12:18:19 50° 99° (E) 976 3.8 -26.5°
Drops below altitude 10° 12:23:14 10° 175° (S) 2,298 5.6 -25.8°
Sets 12:25:36 0° 180° (S) 3,219 6.3 -25.4°
